Regional Weather Roundup
Issued by NWS

Home | Current Version | Previous Version | Text Only | Print | Product List | Glossary Off
Versions: 1 2 3 4 5 6 7 8 9 10 11 12 13 14 15 16 17 18 19 20 21 22 23 24 25 26 27 28 29 30 31 32 33 34 35 36 37 38 39 40 41 42 43 44 45 46 47 48 49 50

000
ASUS43 KLOT 161606
RWRIL

ILLINOIS REGIONAL WEATHER ROUNDUP
NATIONAL WEATHER SERVICE CHICAGO/ROMEOVILLE IL
1100 AM CDT WED APR 16 2014

NOTE: "FAIR" INDICATES FEW OR NO CLOUDS BELOW 12,000 FEET WITH NO
SIGNIFICANT WEATHER AND/OR OBSTRUCTIONS TO VISIBILITY.

* THESE STATIONS ARE NOT UNDER NWS QUALITY CONTROL. THEY ALSO MAY NOT
  REPORT WEATHER SUCH AS PRECIPITATION OR FOG.

ILZ001-002-007-009-015-016-024-161700-
NORTHWEST ILLINOIS

CITY           SKY/WX    TMP DP  RH WIND       PRES   REMARKS
MOLINE         PTSUNNY   48  26  42 S17G29    30.14S
STERLING*      CLOUDY    46  28  49 SE16G24   30.19F
SAVANNA*       PTSUNNY   45  27  49 S24G31    30.16F
$$

ILZ003-004-008-010-011-017-018-161700-
NORTH CENTRAL ILLINOIS

CITY           SKY/WX    TMP DP  RH WIND       PRES   REMARKS
ROCKFORD       CLOUDY    43  26  51 S22G31    30.24F
FREEPORT*      CLOUDY    44  30  58 S24G31    30.20F
ROCHELLE*      CLOUDY    42  30  63 S24G32    30.23F
DE KALB*       CLOUDY    40  29  65 S25       30.25F
$$

ILZ005-006-012>014-019>023-161700-
NORTHEAST ILLINOIS

CITY           SKY/WX    TMP DP  RH WIND       PRES   REMARKS
CHICAGO-OHARE  CLOUDY    43  22  43 S20       30.28F
CHICAGO-MIDWAY PTSUNNY   43  23  45 S17       30.30F
AURORA         PTSUNNY   43  27  53 S22G32    30.26F
LANSING*       MOSUNNY   43  26  51 S15G24    30.32F
WAUKEGAN       CLOUDY    38  27  64 SE15      30.28F WCI  29
DUPAGE AIRPORT PTSUNNY   43  26  51 S20G28    30.26F
KANKAKEE*      SUNNY     44  27  50 S14G23    30.32F
WHEELING       CLOUDY    43  24  47 S17       30.29F
MORRIS*        MOSUNNY   44  24  46 S23G29    30.27F
NORTHERLY ISL    N/A     41  27  57 SE14        N/A
$$

LMZ740>746-161700-
SOUTHERN LAKE MICHIGAN

STATION/POSITION SKY/WX   TEMP    WIND        PRES    VSBY  WAVE
                          AIR SEA DIR/SP/G                  HT/PER
                          (F)     (DEG/KT/KT) (MB)    (MI)  (FT/S)
WAUKEGAN HARBOR            38     150/ 19/ 21 1026.8F
HARRISON CRIB              38     160/ 19/ 24   N/A
BURNHAM HARBOR             41     140/ 19       N/A
CALUMET HARBOR             39     140/ 12/ 17 1027.2F
MICHIGAN CITY              39     140/ 15/ 20   N/A
$$

ILZ025>027-034>036-040-047-049-050-058-095>099-161700-
WEST-CENTRAL ILLINOIS

CITY           SKY/WX    TMP DP  RH WIND       PRES   REMARKS
QUINCY         SUNNY     49  26  41 S22G28    30.13F
GALESBURG*     MOSUNNY   47  30  51 SE16G28   30.16S
MACOMB*        MOSUNNY   48  30  50 S21G30    30.18S
JACKSONVILLE*  SUNNY     49  28  44 SE18G28   30.22S
PITTSFIELD*    SUNNY     50  29  44 SE21      30.18S
$$

ILZ028>032-037-038-041>044-048-051>054-059>061-161700-
CENTRAL ILLINOIS

CITY           SKY/WX    TMP DP  RH WIND       PRES   REMARKS
PONTIAC        SUNNY     45  30  57 S21G31    30.27F
BLOOMINGTON    SUNNY     46  26  46 S24G31    30.27S
DECATUR        SUNNY     46  26  45 S21G26    30.29F
PEORIA         MOSUNNY   48  26  42 S23G32    30.21F
LACON*         PTSUNNY   46  27  47 S21G28    30.22F
LINCOLN*       SUNNY     48  29  47 S22G30    30.26F
SPRINGFIELD    SUNNY     49  26  41 S23G33    30.26R
TAYLORVILLE    SUNNY     45  28  53 SE17G25   30.27S
$$

ILZ033-039-045-046-055>057-062-063-161700-
EAST-CENTRAL ILLINOIS

CITY           SKY/WX    TMP DP  RH WIND       PRES   REMARKS
CHAMPAIGN      SUNNY     46  28  49 S18       30.30F
RANTOUL*       SUNNY     44  29  54 S16       30.32S
MATTOON        SUNNY     44  26  49 S14G23    30.31F
PARIS*         SUNNY     44  29  54 SE16      30.34F
$$

ILZ079-100>102-161700-
SOUTHWEST ILLINOIS

CITY           SKY/WX    TMP DP  RH WIND       PRES   REMARKS
ALTON          MOSUNNY   48  23  37 S21       30.26S
BELLEVILLE     SUNNY     49  28  44 SE16G26   30.28S
CAHOKIA*       SUNNY     48  28  46 S16G23    30.27S
SPARTA*        SUNNY     45  27  49 S14       30.31S
$$

ILZ064>066-069>071-074>076-080>082-084>086-088>090-092>094-161700-
SOUTH-CENTRAL ILLINOIS

CITY           SKY/WX    TMP DP  RH WIND       PRES   REMARKS
CARBONDALE     PTSUNNY   48  27  44 SE9       30.32S
CAIRO*         SUNNY     50  26  38 E9        30.33S
MARION         MOSUNNY   46  25  42 SE9       30.33F
MT. VERNON     MOSUNNY   46  21  36 SE10G20   30.34S
CENTRALIA*       N/A     45  26  46 S16G23    30.31F
SALEM*         SUNNY     46  28  49 SE14G20   30.32S
METROPOLIS*    SUNNY     47  21  35 SE9       30.33S
$$

ILZ067-068-072-073-078-083-087-091-161700-
SOUTHEAST ILLINOIS

CITY           SKY/WX    TMP DP  RH WIND       PRES   REMARKS
FAIRFIELD*     MOSUNNY   46  28  49 SE14      30.34F
HARRISBURG*    MOSUNNY   47  29  51 SE14G20   30.35S
ROBINSON*      SUNNY     47  29  49 SE12G18   30.37S
CARMI*         MOSUNNY   46  31  56 E13G18    30.35S
$$

ABBREVIATIONS USED IN REMARKS
   TC - TEMPERATURE IN CELSIUS
  WCI - WIND CHILL INDEX
   HX - HEAT INDEX
  VSB - VISIBILITY
$$




USA.gov is the U.S. government's official web portal to all federal, state and local government web resources and services.